Regional Weather Roundup
Issued by NWS

Home | Current Version | Previous Version | Graphics & Text | Print | Product List | Glossary On
Versions: 1 2 3 4 5 6 7 8 9 10 11 12 13 14 15 16 17 18 19 20 21 22 23 24 25 26 27 28 29 30 31 32 33 34 35 36 37 38 39 40 41 42 43 44 45 46 47 48 49 50
000
ASUS43 KLOT 271708
RWRIL

ILLINOIS REGIONAL WEATHER ROUNDUP
NATIONAL WEATHER SERVICE CHICAGO/ROMEOVILLE IL
1200 PM CDT THU APR 27 2017

NOTE: "FAIR" INDICATES FEW OR NO CLOUDS BELOW 12,000 FEET WITH NO
SIGNIFICANT WEATHER AND/OR OBSTRUCTIONS TO VISIBILITY.

* THESE STATIONS ARE NOT UNDER NWS QUALITY CONTROL. THEY ALSO MAY NOT
  REPORT WEATHER SUCH AS PRECIPITATION OR FOG.

ILZ001-002-007-009-015-016-024-271800-
NORTHWEST ILLINOIS

CITY           SKY/WX    TMP DP  RH WIND       PRES   REMARKS
MOLINE         CLOUDY    43  34  70 W16G23    29.65R
STERLING*      CLOUDY    42  37  82 W20       29.62R
SAVANNA*       CLOUDY    40  36  83 W13G22    29.62R
$$

ILZ003-004-008-010-011-017-018-271800-
NORTH CENTRAL ILLINOIS

CITY           SKY/WX    TMP DP  RH WIND       PRES   REMARKS
ROCKFORD       LGT RAIN  42  37  82 W16G28    29.60R
FREEPORT*      CLOUDY    40  36  85 W14G20    29.60R
ROCHELLE*      CLOUDY    41  38  88 W22       29.61R
DE KALB*       CLOUDY    42  38  88 W18G24    29.60R
PERU*          CLOUDY    42  37  81 W20G26    29.64R
$$

ILZ005-006-012>014-019>023-271800-
NORTHEAST ILLINOIS

CITY           SKY/WX    TMP DP  RH WIND       PRES   REMARKS
CHICAGO-OHARE  CLOUDY    46  37  71 W20G28    29.58R
CHICAGO-MIDWAY CLOUDY    46  38  73 W22G29    29.60R
AURORA         CLOUDY    44  39  82 W21       29.61R
LANSING*       CLOUDY    46  41  84 W20G25    29.61R
JOLIET*        CLOUDY    46  39  78 W14G21    29.63R
WAUKEGAN       CLOUDY    46  38  73 W12G28    29.54R
DUPAGE AIRPORT CLOUDY    44  38  79 W20G26    29.59R
KANKAKEE*      CLOUDY    47  39  72 W17G29    29.65R
WHEELING       CLOUDY    46  38  73 W15G25    29.58R
MORRIS*        CLOUDY    44  39  83 W16G22    29.63R
ROMEOVILLE*    CLOUDY    43  40  90 W20G31    29.62R
NORTHERLY ISL    N/A     47  37  68 SW20        N/A
$$

LMZ740>746-271800-
SOUTHERN LAKE MICHIGAN

STATION/POSITION SKY/WX   TEMP    WIND        PRES    VSBY  WAVE
                          AIR SEA DIR/SP/G                  HT/PER
                          (F)     (DEG/KT/KT) (MB)    (MI)  (FT/S)
SOUTHERN BUOY              44 41  260/ 17/ 21  998.6          4/ 5
HARRISON CRIB              47     240/ 23/ 26   N/A
BURNHAM HARBOR             47     210/  8/ 20   N/A
CALUMET HARBOR             47     220/ 12/ 19 1001.6R
BURNS HARBOR               49     240/ 20/ 25 1002.4R
MICHIGAN CITY              47     230/ 25/ 28   N/A
MICHIGAN CITY 6N           47 48                N/A           4/ 5
ST. JOSEPH                 46 48  250/ 16/ 19 1002.4          5/ 5
$$

ILZ025>027-034>036-040-047-049-050-058-095>099-271800-
WEST-CENTRAL ILLINOIS

CITY           SKY/WX    TMP DP  RH WIND       PRES   REMARKS
QUINCY         CLOUDY    47  38  71 W12G20    29.72R
GALESBURG*     CLOUDY    43  37  80 W14       29.67R
MACOMB*        CLOUDY    45  40  83 W16       29.72R
JACKSONVILLE*  CLOUDY    45  39  80 W14       29.73R
PITTSFIELD*    CLOUDY    46  38  73 W9G18     29.75R
$$

ILZ028>032-037-038-041>044-048-051>054-059>061-271800-
CENTRAL ILLINOIS

CITY           SKY/WX    TMP DP  RH WIND       PRES   REMARKS
PONTIAC        CLOUDY    45  42  87 SW20      29.67R
BLOOMINGTON    CLOUDY    46  39  76 W20G25    29.67R
DECATUR        CLOUDY    48  45  89 W15G22    29.71R
PEORIA         CLOUDY    47  39  74 W10       29.67S
LACON*         CLOUDY    44  37  77 W12G20    29.66R
LINCOLN*       CLOUDY    48  42  79 W8        29.70R
SPRINGFIELD    CLOUDY    48  41  76 W20G25    29.72R
TAYLORVILLE    CLOUDY    47  42  82 W15G22    29.73R
$$

ILZ033-039-045-046-055>057-062-063-271800-
EAST-CENTRAL ILLINOIS

CITY           SKY/WX    TMP DP  RH WIND       PRES   REMARKS
CHAMPAIGN      CLOUDY    47  42  83 W16       29.69R
RANTOUL*       CLOUDY    48  43  80 W16G22    29.69R
MATTOON        CLOUDY    48  45  89 W13       29.72R
PARIS*         CLOUDY    50  45  83 W15G22    29.72R
$$

ILZ079-100>102-271800-
SOUTHWEST ILLINOIS

CITY           SKY/WX    TMP DP  RH WIND       PRES   REMARKS
ALTON          CLOUDY    48  39  71 S16G22    29.77R
BELLEVILLE     CLOUDY    51  43  74 W8G17     29.76R
CAHOKIA*       CLOUDY    50  39  66 W9        29.78R
$$

ILZ064>066-069>071-074>076-080>082-084>086-088>090-092>094-271800-
SOUTH-CENTRAL ILLINOIS

CITY           SKY/WX    TMP DP  RH WIND       PRES   REMARKS
CARBONDALE     CLOUDY    51  45  79 W10       29.80R
CAIRO*         CLOUDY    51  46  82 W7        29.82R
EFFINGHAM*     CLOUDY    51  46  82 SW14G20   29.76R
MARION         CLOUDY    54  46  76 W9        29.80R
MT. VERNON     CLOUDY    50  45  83 W8        29.78R
CENTRALIA*     CLOUDY    51  45  80 W13G18    29.76R
SALEM*         CLOUDY    52  44  74 W14       29.76R
METROPOLIS*    CLOUDY    54  46  74 W8        29.82R
$$

ILZ067-068-072-073-078-083-087-091-271800-
SOUTHEAST ILLINOIS

CITY           SKY/WX    TMP DP  RH WIND       PRES   REMARKS
LAWRENCEVILLE  CLOUDY    55  47  74 W18G24    29.74R
FLORA*         CLOUDY    52  46  80 SW12      29.76R
FAIRFIELD*     CLOUDY    50  47  89 SW9       29.77R FOG
HARRISBURG*    CLOUDY    55  48  78 W14       29.79R
ROBINSON*      CLOUDY    51  46  82 SW13G21   29.75R
CARMI*         CLOUDY    55  49  79 W13       29.76R
$$

ABBREVIATIONS USED IN REMARKS
   TC - TEMPERATURE IN CELSIUS
  WCI - WIND CHILL INDEX
   HX - HEAT INDEX
  VSB - VISIBILITY
$$





USA.gov is the U.S. government's official web portal to all federal, state and local government web resources and services.